[[{"header":{"parameterUnit":"m.s-1","parameterCategory":1,"la1":30.2991,"la2":30.254,"lo1":-89.0895,"lo2":-89.0444,"dy":0.0017,"dx":0.0017,"nx":28,"ny":28,"refTime":"2025-07-11T03:00:00:Z","depth":0,"parameterNumber":2,"parameterNumberName":"U-component_of_WINDS"},"data":[0,0,0,0,0,0,0,0,0,0,0,0,0,0,0,0,0,0,0,0,0,0,0,0,0,0,0,0,0,0,0,0,0,0,0,0,0,0,0,0,0,0,0,0,0,0,0,0,0,0,0,0,0,0,0,0,0,0,2.6899,2.6899,0,2.6971,2.6972,2.6973,2.6948,2.6946,2.6945,2.6943,2.7016,2.7019,2.7023,0,0,0,0,0,0,0,0,0,0,0,0,0,2.6735,2.6738,2.6898,2.6899,2.69,2.6971,2.6972,2.6973,2.6948,2.6946,2.6944,2.6943,2.7015,2.7019,2.7023,0,0,0,0,0,0,0,0,0,0,0,0,0,2.6806,2.6739,2.6898,2.6896,2.6897,2.6971,2.6972,2.6974,2.6949,2.6946,2.6944,2.6942,2.7013,2.7018,2.7024,2.7103,0,0,2.7039,2.7041,0,0,0,0,0,0,0,0,2.6802,2.6812,2.6896,2.6897,2.6897,2.6948,2.6941,2.7017,2.6949,2.6929,2.6943,2.6941,2.6995,2.7002,2.7021,2.7107,2.711,2.704,2.7043,2.7045,2.7046,0,0,0,0,0,0,0,2.6797,2.6809,2.6927,2.6897,2.6898,2.6891,2.6899,2.6955,2.6975,2.6931,2.6929,2.6938,2.6995,2.7016,2.7022,2.7111,2.704,2.7044,2.7047,2.7049,2.7264,2.7267,0,0,0,0,0,0,2.6792,2.6805,2.6925,2.6929,2.6843,2.6896,2.6904,2.6934,2.6974,2.6978,2.694,2.6937,2.7008,2.7016,2.7025,2.7119,2.7045,2.705,2.7053,2.7262,2.7265,2.7268,0,0,0,0,0,0,2.6789,2.6803,2.6922,2.6867,2.6882,2.6901,2.6935,2.6937,2.6958,2.6981,2.6984,2.6958,2.7007,2.7017,2.7084,2.7122,2.7052,2.7057,2.7259,2.7263,2.7266,2.7311,0,0,0,0,0,0,2.6784,2.6802,2.6833,2.6868,2.6885,2.6981,2.6938,2.694,2.6967,2.6963,2.6998,2.7002,2.7005,2.7076,2.7089,2.7127,2.7061,2.7255,2.7261,2.7265,2.7306,2.7316,2.7324,0,0,0,0,0,2.6779,2.6843,2.6835,2.685,2.6924,2.6983,2.6993,2.6996,2.697,2.7001,2.7016,2.7001,2.7116,2.7083,2.7097,2.7138,2.7253,2.7259,2.7265,2.7302,2.7314,2.7324,0,0,0,0,0,0,2.6812,2.6847,2.6839,2.6917,2.6947,2.6979,2.7018,2.7009,2.7047,2.7041,2.7043,2.7051,2.7119,2.7135,2.7099,2.7217,2.718,2.7189,2.7204,2.7215,2.7224,2.7218,2.7065,0,0,0,0,0,2.6828,2.6874,2.6902,2.6968,2.6983,2.6998,2.7024,2.7024,2.7055,2.7068,2.7088,2.7118,2.7161,2.7189,2.723,2.7308,2.7315,2.7343,2.7352,2.7359,2.7367,2.7408,2.7421,2.7287,2.7287,2.7287,0,0,2.6862,2.6887,2.6916,2.6975,2.6999,2.7045,2.7009,2.706,2.7094,2.7075,2.7139,2.7155,2.7189,2.7261,2.7294,2.7277,2.7405,2.7367,2.7373,2.7376,2.7416,2.7428,2.744,2.7291,2.7291,2.729,0,0,2.6948,2.6972,2.7029,2.7053,2.709,2.7099,2.7113,2.7146,2.7156,2.722,2.7206,2.7247,2.7321,2.7345,2.7367,2.7461,2.7449,2.7475,2.7521,2.7562,2.7572,2.7582,2.7614,2.7626,2.7482,2.7482,2.7482,0,2.6986,2.7056,2.7059,2.7111,2.7137,2.7122,2.7179,2.7202,2.725,2.7268,2.7247,2.7339,2.7361,2.7439,2.7462,2.7481,2.7495,2.747,2.7571,2.758,2.7589,2.762,2.7632,2.7485,2.7485,2.7484,2.7484,0,2.71,2.7148,2.719,2.7236,2.7267,2.7321,2.7331,2.7361,2.7359,2.737,2.7435,2.746,2.7506,2.7524,2.7522,2.7601,2.7589,2.757,2.7533,2.7604,2.7634,2.7646,2.7489,2.7488,2.7487,2.7487,0,0,2.7208,2.7256,2.7271,2.7291,2.733,2.7367,2.742,2.7465,2.749,2.7524,2.7567,2.763,2.7612,2.7637,2.7638,2.7673,2.7745,2.765,2.765,2.7666,2.7833,2.7846,2.786,2.7737,2.7739,2.7741,2.7829,0,2.7296,2.739,2.7394,2.7479,2.7523,2.751,2.7556,2.7584,2.7596,2.7634,2.7647,2.7691,2.7665,2.768,2.7715,2.7729,2.7778,2.7723,2.7776,2.7778,2.7768,2.7875,2.789,2.7972,2.7841,2.7843,2.7844,0,2.7412,2.7449,2.7538,2.757,2.7588,2.763,2.767,2.7708,2.7739,2.7745,2.7773,2.7768,2.7821,2.7783,2.7855,2.7817,2.784,2.785,2.7853,2.7858,2.7815,2.7881,2.7998,2.801,2.7862,2.7861,2.786,0,2.7481,2.7553,2.7615,2.7633,2.7672,2.7701,2.7719,2.7748,2.7774,2.7809,2.7826,2.7867,2.789,2.7921,2.7927,2.7899,2.7999,2.7962,2.8004,2.8004,2.8025,2.8024,2.8146,2.8041,2.8041,2.8041,2.8041,0,2.7578,2.7633,2.7647,2.7685,2.7746,2.7749,2.7809,2.7824,2.785,2.789,2.7881,2.7919,2.7925,2.7964,2.7969,2.8027,2.8037,2.8043,2.8043,2.8043,2.8042,2.8057,2.8051,2.8044,2.8043,2.8043,2.8042,0,2.7665,2.7677,2.7744,2.7775,2.7784,2.7827,2.7853,2.7889,2.79,2.7951,2.7963,2.7979,2.8025,2.8034,2.8087,2.809,2.816,2.8155,2.8149,2.8149,2.819,2.8186,2.8325,2.8344,2.8228,2.8229,2.823,0,2.7726,2.7768,2.7804,2.783,2.7849,2.7892,2.7919,2.7924,2.7952,2.799,2.8022,2.8066,2.8102,2.8175,2.8191,2.8231,2.8227,2.8273,2.8233,2.8231,2.8226,2.8223,2.8227,2.828,2.8282,2.8283,2.8284,0,2.7833,2.7836,2.7876,2.7917,2.7949,2.7982,2.8013,2.8035,2.8044,2.8076,2.8122,2.815,2.8205,2.8248,2.8289,2.8306,2.8296,2.8296,2.8308,2.8308,2.8302,2.8305,2.8169,2.8293,2.8292,2.8291,2.8291,2.829,2.7908,2.7944,2.7975,2.8019,2.8043,2.8071,2.8107,2.8122,2.8161,2.8206,2.8206,2.8257,2.8286,2.8339,2.8359,2.8397,2.8383,2.84,2.8404,2.8408,2.8412,2.8297,2.8405,2.8405,2.8404,2.8404,2.8404,0,2.8014,2.8033,2.8073,2.8116,2.8151,2.8139,2.8172,2.8201,2.8246,2.8275,2.831,2.8363,2.8405,2.8424,2.8466,2.8493,2.849,2.8504,2.8501,2.8505,2.8423,2.8408,2.8506,2.8506,2.8506,2.8506,2.8506,2.8506,2.8072,2.8133,2.814,2.8211,2.8229,2.8279,2.8299,2.8325,2.8348,2.8407,2.8442,2.8455,2.848,2.8523,2.8561,2.8565,2.858,2.8597,2.8599,2.8522,2.8511,2.8501,2.8487,2.86,2.86,2.8678,2.8678,2.8679]},{"header":{"parameterUnit":"m.s-1","parameterCategory":1,"la1":30.2991,"la2":30.254,"lo1":-89.0895,"lo2":-89.0444,"dy":0.0017,"dx":0.0017,"nx":28,"ny":28,"refTime":"2025-07-11T03:00:00:Z","depth":0,"parameterNumber":3,"parameterNumberName":"V-component_of_WINDS"},"data":[0,0,0,0,0,0,0,0,0,0,0,0,0,0,0,0,0,0,0,0,0,0,0,0,0,0,0,0,0,0,0,0,0,0,0,0,0,0,0,0,0,0,0,0,0,0,0,0,0,0,0,0,0,0,0,0,0,0,0.3004,0.3003,0,0.2938,0.2937,0.2936,0.2896,0.2896,0.2895,0.2895,0.2826,0.2824,0.2822,0,0,0,0,0,0,0,0,0,0,0,0,0,0.3092,0.3091,0.3004,0.3003,0.3002,0.2938,0.2937,0.2936,0.2896,0.2896,0.2895,0.2895,0.2826,0.2824,0.2822,0,0,0,0,0,0,0,0,0,0,0,0,0,0.3043,0.309,0.3004,0.2974,0.2971,0.2938,0.2937,0.2936,0.2896,0.2896,0.2895,0.2895,0.2827,0.2825,0.2822,0.2813,0,0,0.2814,0.2813,0,0,0,0,0,0,0,0,0.3046,0.304,0.298,0.2976,0.2973,0.2925,0.2943,0.2895,0.2896,0.2924,0.2895,0.2895,0.2859,0.2854,0.2842,0.281,0.2807,0.2814,0.2813,0.2812,0.2811,0,0,0,0,0,0,0,0.3049,0.3042,0.2978,0.2979,0.2975,0.2963,0.2956,0.2933,0.2894,0.2922,0.2919,0.2912,0.2857,0.2844,0.284,0.2806,0.2814,0.2812,0.2811,0.281,0.2761,0.2761,0,0,0,0,0,0,0.3058,0.3045,0.298,0.2976,0.3009,0.2962,0.2954,0.294,0.2894,0.2887,0.2912,0.291,0.2849,0.2843,0.2837,0.2823,0.2812,0.2809,0.2808,0.2761,0.2761,0.2761,0,0,0,0,0,0,0.306,0.3052,0.2982,0.301,0.3,0.2961,0.2946,0.2939,0.2927,0.2887,0.2879,0.2907,0.2848,0.2841,0.2819,0.282,0.2808,0.2806,0.276,0.2761,0.2761,0.2794,0,0,0,0,0,0,0.3062,0.3053,0.305,0.301,0.2999,0.2966,0.2946,0.2938,0.2923,0.292,0.288,0.2873,0.2848,0.2823,0.2817,0.2816,0.2804,0.276,0.276,0.2761,0.2793,0.2796,0.2798,0,0,0,0,0,0.3066,0.3062,0.305,0.3042,0.2994,0.2967,0.296,0.2931,0.2923,0.2919,0.2893,0.2874,0.2821,0.2821,0.2814,0.2813,0.276,0.276,0.2761,0.2792,0.2795,0.2798,0,0,0,0,0,0,0.3103,0.3056,0.3043,0.3026,0.3001,0.296,0.2954,0.2936,0.2912,0.291,0.2875,0.2866,0.2847,0.2828,0.2829,0.28,0.2788,0.2787,0.2814,0.2817,0.282,0.2825,0.2802,0,0,0,0,0,0.3109,0.3092,0.3051,0.304,0.3028,0.2994,0.298,0.296,0.2932,0.2921,0.2894,0.2867,0.2843,0.2829,0.2806,0.279,0.278,0.2785,0.2788,0.279,0.2789,0.2778,0.278,0.2762,0.2762,0.2762,0,0,0.3122,0.3094,0.3085,0.3047,0.3025,0.3007,0.2985,0.2966,0.2952,0.2918,0.2896,0.2875,0.2842,0.2823,0.2813,0.2806,0.2792,0.279,0.2793,0.2791,0.2779,0.2781,0.2782,0.2763,0.2763,0.2763,0,0,0.3136,0.3114,0.3102,0.308,0.3047,0.3024,0.3021,0.2982,0.2967,0.2944,0.2918,0.29,0.2861,0.2839,0.2822,0.2826,0.2807,0.2819,0.2833,0.2822,0.2823,0.2824,0.2825,0.2826,0.2819,0.2819,0.2819,0,0.3156,0.3128,0.3098,0.3081,0.3064,0.3033,0.302,0.3,0.2961,0.295,0.2942,0.2892,0.2868,0.2843,0.2844,0.2831,0.2826,0.2824,0.2826,0.2827,0.2827,0.2827,0.2828,0.282,0.282,0.282,0.282,0,0.3154,0.3135,0.3129,0.3092,0.3075,0.306,0.3026,0.3012,0.2993,0.297,0.2947,0.2916,0.2886,0.2878,0.286,0.285,0.2846,0.2833,0.282,0.2831,0.2831,0.283,0.2823,0.2822,0.2822,0.2821,0,0,0.3191,0.3137,0.3135,0.3118,0.3078,0.3062,0.3045,0.3015,0.3004,0.2977,0.2961,0.2929,0.2916,0.2897,0.2875,0.2866,0.287,0.2853,0.2852,0.2857,0.2856,0.2866,0.2867,0.2857,0.2857,0.2857,0.2859,0,0.3199,0.3168,0.3139,0.3118,0.3099,0.3068,0.3053,0.3027,0.3004,0.2984,0.2959,0.2936,0.2921,0.2909,0.2899,0.2872,0.2869,0.2871,0.2841,0.284,0.2851,0.2867,0.2878,0.2882,0.2858,0.2858,0.2858,0,0.3205,0.318,0.3157,0.3118,0.3109,0.3096,0.3066,0.3047,0.3016,0.3,0.2979,0.2956,0.2935,0.2924,0.2894,0.2896,0.2882,0.2866,0.2866,0.2862,0.285,0.2863,0.2882,0.2882,0.2858,0.2858,0.2858,0,0.3234,0.3194,0.3175,0.3161,0.3115,0.3107,0.3087,0.3055,0.3039,0.3012,0.3001,0.2972,0.2956,0.2934,0.2903,0.2898,0.2876,0.2863,0.2862,0.2863,0.2859,0.286,0.2875,0.285,0.285,0.285,0.285,0,0.3246,0.3233,0.3187,0.3175,0.3159,0.3126,0.3111,0.3088,0.306,0.3042,0.3014,0.2998,0.2958,0.2937,0.2912,0.2891,0.2884,0.287,0.2863,0.2872,0.2874,0.2863,0.2862,0.285,0.285,0.285,0.285,0,0.3276,0.3245,0.3221,0.318,0.3169,0.3159,0.3123,0.311,0.3085,0.3063,0.3056,0.3017,0.2991,0.2958,0.292,0.2904,0.2885,0.2875,0.2896,0.2892,0.2893,0.2893,0.2901,0.29,0.2876,0.2877,0.2877,0,0.3286,0.3275,0.3232,0.3218,0.32,0.3178,0.3161,0.3127,0.311,0.3073,0.3064,0.3035,0.3011,0.2969,0.2937,0.2908,0.2897,0.2902,0.2893,0.2902,0.2897,0.2898,0.2896,0.2905,0.2905,0.2906,0.2906,0,0.3306,0.3291,0.3268,0.3239,0.322,0.3196,0.317,0.316,0.3121,0.3103,0.3076,0.3057,0.3018,0.299,0.2956,0.2935,0.2914,0.2909,0.2907,0.2916,0.2929,0.2922,0.2902,0.2909,0.2909,0.2909,0.2909,0.2908,0.3326,0.3315,0.3282,0.3257,0.3234,0.3211,0.3196,0.3169,0.3146,0.3113,0.3094,0.3067,0.3034,0.2987,0.2966,0.2944,0.2936,0.2933,0.2933,0.2933,0.2935,0.2932,0.2937,0.2937,0.2937,0.2937,0.2937,0,0.3345,0.3322,0.33,0.3265,0.3245,0.3227,0.3197,0.3181,0.3158,0.3129,0.3105,0.3073,0.3045,0.301,0.2979,0.2968,0.2957,0.2961,0.2961,0.2956,0.2944,0.2949,0.297,0.297,0.297,0.297,0.297,0.297,0.3353,0.3332,0.3313,0.328,0.3257,0.3231,0.3215,0.3193,0.317,0.3135,0.3112,0.3089,0.3058,0.3024,0.2997,0.2987,0.2977,0.2984,0.2971,0.296,0.2957,0.2955,0.2959,0.2982,0.2982,0.2985,0.2985,0.2985]}]]